CST,Max TemperatureF,Mean TemperatureF,Min TemperatureF,Max Dew PointF,MeanDew PointF,Min DewpointF,Max Humidity, Mean Humidity, Min Humidity, Max Sea Level PressureIn, Mean Sea Level PressureIn, Min Sea Level PressureIn, Max VisibilityMiles, Mean VisibilityMiles, Min VisibilityMiles, Max Wind SpeedMPH, Mean Wind SpeedMPH, Max Gust SpeedMPH,PrecipitationIn, CloudCover, Events, WindDirDegrees
2012-11-1,44,34,27,30,26,21,81,69,55,29.94,29.84,29.77,10,10,10,21,10,28,0.00,4,,317
2012-11-2,37,34,30,26,22,21,73,65,54,30.22,30.10,29.94,10,10,10,21,11,28,0.00,6,,346
2012-11-3,37,34,30,25,24,23,73,68,59,30.27,30.26,30.23,10,10,10,8,4,,0.00,8,,7
2012-11-4,39,34,28,25,23,23,80,68,53,30.30,30.26,30.20,10,10,10,9,4,,0.00,6,,9
2012-11-5,33,27,21,23,21,19,92,73,64,30.29,30.22,30.09,10,10,10,7,4,,0.00,6,,64
2012-11-6,36,28,19,34,30,18,100,89,79,30.09,29.92,29.83,10,5,1,12,5,16,0.00,8,Rain-Snow,151
2012-11-7,41,38,35,38,36,34,100,93,82,30.13,30.04,29.93,10,4,1,5,0,,0.00,8,Rain,219
2012-11-8,46,38,30,34,32,30,96,77,61,30.13,30.06,29.99,10,10,8,15,5,24,0.00,6,,183
2012-11-9,44,40,35,37,34,30,89,80,73,30.18,30.13,30.06,10,10,10,9,4,18,0.00,8,,36
2012-11-10,48,42,36,47,42,30,100,93,79,30.17,29.90,29.71,10,4,0,13,6,18,0.07,8,Fog-Rain,117
2012-11-11,60,50,37,54,49,34,100,92,75,29.74,29.66,29.59,10,5,0,15,8,24,0.59,8,Fog-Rain-Thunderstorm,179
2012-11-12,37,30,23,32,18,12,85,71,58,30.17,29.91,29.70,10,9,3,14,10,25,0.00,6,Snow,261
2012-11-13,37,29,21,20,18,15,78,66,46,30.42,30.35,30.19,10,10,10,8,6,,0.00,0,,225
2012-11-14,42,34,27,28,25,19,75,67,55,30.42,30.35,30.27,10,10,10,12,5,,0.00,6,,155
2012-11-15,50,38,27,32,29,23,85,70,48,30.40,30.26,30.19,10,10,8,13,6,,0.00,4,,155
2012-11-16,39,29,19,24,20,15,89,72,45,30.55,30.50,30.42,10,10,10,6,1,,0.00,0,,107
2012-11-17,43,33,23,34,30,19,100,90,71,30.51,30.44,30.38,10,5,0,9,4,,0.00,4,Fog,149
2012-11-18,50,38,27,39,32,25,100,90,54,30.43,30.36,30.27,10,3,0,12,5,18,0.00,3,Fog,142
2012-11-19,55,44,33,37,35,32,93,76,42,30.27,30.17,30.07,10,6,2,10,5,,0.00,6,,142
2012-11-20,55,42,30,39,36,28,100,86,51,30.16,30.10,30.06,10,5,0,8,1,,0.00,4,Fog,5
2012-11-21,50,42,33,40,37,33,100,89,63,30.14,30.02,29.88,10,4,0,15,5,21,0.00,1,Fog,152
2012-11-22,62,50,39,41,39,36,93,72,46,29.86,29.65,29.52,10,9,5,18,8,29,0.00,2,,177
2012-11-23,35,30,23,29,20,13,86,74,64,30.15,29.83,29.55,10,7,1,31,18,44,0.00,8,Snow,303
2012-11-24,27,24,21,20,13,10,92,67,53,30.21,30.07,29.85,10,9,1,25,13,34,0.00,6,Snow,292
2012-11-25,28,22,17,22,19,15,93,83,69,30.02,29.83,29.72,10,7,1,13,5,23,0.01,8,Snow,252
2012-11-26,23,14,6,18,11,2,87,71,58,30.35,30.21,30.04,10,9,2,17,8,24,0.00,5,Snow,305
2012-11-27,30,20,10,20,12,5,84,68,46,30.32,30.18,30.09,10,10,9,10,4,20,0.00,6,,236
2012-11-28,28,24,21,19,14,11,78,65,51,30.28,30.20,30.12,10,10,5,17,9,28,0.00,4,Snow,272
2012-11-29,28,22,17,24,20,14,92,83,75,30.32,30.22,30.15,10,9,6,10,4,16,0.00,6,,28
2012-11-30,28,24,21,26,20,12,92,80,63,30.32,30.28,30.23,10,10,10,10,6,,0.00,8,,64